sat.trackr.live / text

‹ back to catalog

STARLINK-32877

NORAD 62960 · 2025-029N

PAYLOAD ACTIVE UNKNOWN

§ Identity

Operator
Country
US
Launch date
2025-02-11
Launch site
AFWTR
Launch vehicle
Mass (kg)
RCS (m²)

Purposes: comms

External: N2YO · Heavens-Above · Gunter

§ Orbital elements

Epoch: 2026-09-21T20:47:40.332192Z

Period
93.85 min
Inclination
53.1597°
Eccentricity
0.0000791
Mean motion
15.34395597 rev/d
Perigee alt
462.2 km
Apogee alt
463.3 km
Semi-major
6,840.9 km
B*
4.1489e-4
RAAN
39.0686°
Arg perigee
57.2076°
Mean anomaly
302.9003°
Rev number
9,136

§ Raw data

STARLINK-328771 62960U 25029N   26264.86643903  .00013665  00000+0  41489-3 0  99992 62960  53.1597  39.0686 0000791  57.2076 302.9003 15.34395597 91368

JSON: /api/v1/satellites/62960 · /tle

For live sub-satellite position, see the globe view (requires WebGL).

§ Visibility from observer

Set your observer location to see the next 7 days of passes ≥ 10°. The values pass through the URL so the page stays shareable.

No JS? Fill the form by hand. The geolocation button needs JavaScript.